Sault Ste Marie, MI

5:27 PM EDT on April 20, 2018 (GMT -0400)
Sault Ste Marie Municipal / Sanderson Field

Weather History for KANJ - May, 2014

Change the Weather History Date:

Sunday, May 18, 2014

  Actual Average Record
Temperature  
Mean Temperature 50 °F 52 °F  
Max Temperature 66 °F 64 °F 84 °F (1972)
Min Temperature 34 °F 41 °F 26 °F (1973)
Degree Days  
Heating Degree Days 15 13  
Month to date heating degree days 360 272  
Since 1 July heating degree days 9524 8341  
Cooling Degree Days 0 0  
Month to date cooling degree days 0 0  
Year to date cooling degree days 0 0  
Moisture  
Dew Point 35 °F    
Average Humidity 65    
Maximum Humidity 96    
Minimum Humidity 34    
Precipitation  
Precipitation T in 0.09 in 0.73 in (2006)
Month to date precipitation 2.17 1.42  
Year to date precipitation 11.44 9.29  
Sea Level Pressure  
Sea Level Pressure 30.08 in    
Wind  
Wind Speed 7 mph (South)    
Max Wind Speed 20 mph    
Max Gust Speed 29 mph    
Visibility 10 miles    
Events Rain    
T = Trace of Precipitation, MM = Missing Value Source: NWS Daily Summary

Daily Weather History Graph

Daily Weather History Graph

Search for Another Location

Airport or City:

Astronomy

May. 18, 2014 Rise Set
Actual Time 6:00 AM EDT 9:08 PM EDT
Civil Twilight 5:24 AM EDT 9:44 PM EDT
Nautical Twilight 4:37 AM EDT 10:31 PM EDT
Astronomical Twilight 3:40 AM EDT 11:28 PM EDT
Moon 12:05 AM EDT (5/18) 9:50 AM EDT (5/18)
Length of Visible Light 16h 19m
Length of Day
15h 07m
Waning Gibbous, 81% of the Moon is Illuminated
May 18
Waning Gibbous
May 21
Last Quarter
May 28
New
Jun 5
First Quarter
Jun 13
Full

Hourly Weather History & Observations

Time (EDT) Temp. Windchill Dew Point Humidity Pressure Visibility Wind Dir Wind Speed Gust Speed Precip Events Conditions
12:55 AM 39.0 °F 34.8 °F 32.0 °F 76% 30.07 in 10.0 mi East 5.8 mph - N/A   Clear
1:55 AM 37.0 °F 33.3 °F 30.9 °F 79% 30.06 in 10.0 mi East 4.6 mph - N/A   Clear
2:55 AM 35.1 °F 31.0 °F 30.9 °F 85% 30.06 in 10.0 mi East 4.6 mph - N/A   Clear
3:55 AM 34.0 °F 29.8 °F 32.0 °F 92% 30.06 in 10.0 mi East 4.6 mph - N/A   Clear
4:55 AM 34.0 °F 31.0 °F 32.0 °F 92% 30.07 in 10.0 mi East 3.5 mph - N/A   Clear
5:55 AM 34.0 °F 31.0 °F 32.0 °F 92% 30.08 in 10.0 mi East 3.5 mph - N/A   Clear
6:55 AM 35.1 °F 31.0 °F 33.1 °F 92% 30.08 in 10.0 mi East 4.6 mph - N/A   Clear
7:55 AM 37.9 °F 34.4 °F 35.1 °F 89% 30.09 in 10.0 mi East 4.6 mph - N/A   Clear
8:55 AM 45.0 °F 42.6 °F 37.0 °F 74% 30.09 in 10.0 mi East 4.6 mph - N/A   Clear
9:55 AM 48.0 °F - 37.0 °F 66% 30.09 in 10.0 mi Variable 3.5 mph - N/A   Clear
10:55 AM 52.0 °F - 37.9 °F 59% 30.09 in 10.0 mi SE 8.1 mph - N/A   Clear
11:55 AM 57.9 °F - 39.9 °F 51% 30.08 in 10.0 mi Variable 6.9 mph - N/A   Clear
12:55 PM 63.0 °F - 35.1 °F 35% 30.06 in 10.0 mi SSW 9.2 mph 16.1 mph N/A   Mostly Cloudy
1:55 PM 64.0 °F - 36.0 °F 35% 30.06 in 10.0 mi SSW 17.3 mph - N/A   Mostly Cloudy
2:55 PM 63.0 °F - 35.1 °F 35% 30.06 in 10.0 mi WSW 16.1 mph 25.3 mph N/A   Mostly Cloudy
3:21 PM 57.9 °F - 39.0 °F 49% 30.09 in 10.0 mi West 11.5 mph 25.3 mph 0.00 in Rain Light Rain
3:55 PM 59.0 °F - 41.0 °F 51% 30.10 in 10.0 mi WSW 8.1 mph - 0.00 in   Mostly Cloudy
4:55 PM 64.9 °F - 37.0 °F 36% 30.08 in 10.0 mi Variable 6.9 mph - N/A   Scattered Clouds
5:55 PM 64.9 °F - 37.0 °F 36% 30.08 in 10.0 mi SW 11.5 mph - N/A   Scattered Clouds
6:55 PM 63.0 °F - 35.1 °F 35% 30.08 in 10.0 mi SW 13.8 mph - N/A   Clear
7:55 PM 61.0 °F - 36.0 °F 39% 30.09 in 10.0 mi SW 9.2 mph - N/A   Overcast
8:55 PM 55.9 °F - 35.1 °F 45% 30.09 in 10.0 mi SSW 5.8 mph - N/A   Clear
9:55 PM 53.1 °F - 35.1 °F 50% 30.11 in 10.0 mi West 6.9 mph - N/A   Clear
10:55 PM 50.0 °F - 35.1 °F 57% 30.12 in 10.0 mi SW 3.5 mph - N/A   Clear
11:55 PM 50.0 °F - 34.0 °F 54% 30.12 in 10.0 mi SW 5.8 mph - N/A   Clear